Time,TemperatureF,DewpointF,PressureIn,WindDirection,WindDirectionDegrees,WindSpeedMPH,WindSpeedGustMPH,Humidity,HourlyPrecipIn,Conditions,Clouds,dailyrainin,SoftwareType,DateUTC
2013-11-23 00:00:00,16.4,8.3,30.73,West,281,0.0,14.0,70,0.00,,,0.00,Wunderground v.1.13,2013-11-23 07:00:00,
2013-11-23 00:05:00,16.5,8.7,30.73,West,281,0.0,14.0,71,0.00,,,0.00,Wunderground v.1.13,2013-11-23 07:05:00,
2013-11-23 00:10:00,16.5,8.7,30.73,West,281,0.0,14.0,71,0.00,,,0.00,Wunderground v.1.13,2013-11-23 07:10:00,
2013-11-23 00:15:00,16.5,8.7,30.73,West,281,0.0,14.0,71,0.00,,,0.00,Wunderground v.1.13,2013-11-23 07:15:00,
2013-11-23 00:20:00,16.7,8.9,30.73,WNW,282,0.0,14.0,71,0.00,,,0.00,Wunderground v.1.13,2013-11-23 07:20:00,
2013-11-23 00:25:00,17.2,9.1,30.73,WNW,290,0.0,14.0,70,0.00,,,0.00,Wunderground v.1.13,2013-11-23 07:25:00,
2013-11-23 00:30:00,17.5,9.1,30.73,WNW,290,0.0,14.0,69,0.00,,,0.00,Wunderground v.1.13,2013-11-23 07:30:00,
2013-11-23 00:35:00,17.7,8.9,30.73,WNW,290,0.0,14.0,68,0.00,,,0.00,Wunderground v.1.13,2013-11-23 07:35:00,
2013-11-23 00:40:00,17.8,9.0,30.73,NW,312,0.0,14.0,68,0.00,,,0.00,Wunderground v.1.13,2013-11-23 07:40:00,
2013-11-23 00:50:00,17.7,8.9,30.72,NW,325,1.0,1.0,68,0.00,,,0.00,Wunderground v.1.13,2013-11-23 07:50:00,
2013-11-23 00:55:00,17.7,8.9,30.72,North,350,2.0,2.0,68,0.00,,,0.00,Wunderground v.1.13,2013-11-23 07:55:00,
2013-11-23 01:00:00,17.7,8.9,30.72,WNW,302,1.0,1.0,68,0.00,,,0.00,Wunderground v.1.13,2013-11-23 08:00:00,
2013-11-23 01:05:00,17.3,8.5,30.72,NW,321,0.0,14.0,68,0.00,,,0.00,Wunderground v.1.13,2013-11-23 08:05:00,
2013-11-23 01:10:00,17.2,8.4,30.72,NW,311,0.0,14.0,68,0.00,,,0.00,Wunderground v.1.13,2013-11-23 08:10:00,
2013-11-23 01:15:00,17.0,8.6,30.73,NW,304,0.0,14.0,69,0.00,,,0.00,Wunderground v.1.13,2013-11-23 08:15:00,
2013-11-23 01:20:00,16.9,8.5,30.73,West,269,1.0,14.0,69,0.00,,,0.00,Wunderground v.1.13,2013-11-23 08:20:00,
2013-11-23 01:25:00,16.9,8.5,30.73,NW,325,2.0,14.0,69,0.00,,,0.00,Wunderground v.1.13,2013-11-23 08:25:00,
2013-11-23 01:30:00,16.9,8.5,30.74,North,351,1.0,1.0,69,0.00,,,0.00,Wunderground v.1.13,2013-11-23 08:30:00,
2013-11-23 01:35:00,17.0,8.6,30.74,NW,309,0.0,14.0,69,0.00,,,0.00,Wunderground v.1.13,2013-11-23 08:35:00,
2013-11-23 01:40:00,17.3,8.5,30.74,WNW,284,0.0,14.0,68,0.00,,,0.00,Wunderground v.1.13,2013-11-23 08:40:00,
2013-11-23 01:45:00,17.5,8.7,30.75,West,272,0.0,14.0,68,0.00,,,0.00,Wunderground v.1.13,2013-11-23 08:45:00,
2013-11-23 01:50:00,17.5,8.4,30.75,West,272,0.0,14.0,67,0.00,,,0.00,Wunderground v.1.13,2013-11-23 08:50:00,
2013-11-23 01:55:00,17.7,8.6,30.75,West,272,0.0,14.0,67,0.00,,,0.00,Wunderground v.1.13,2013-11-23 08:55:00,
2013-11-23 02:00:00,17.7,8.6,30.75,West,272,0.0,14.0,67,0.00,,,0.00,Wunderground v.1.13,2013-11-23 09:00:00,
2013-11-23 02:05:00,17.5,8.7,30.75,West,272,0.0,14.0,68,0.00,,,0.00,Wunderground v.1.13,2013-11-23 09:05:00,
2013-11-23 02:10:00,17.5,8.4,30.75,West,273,0.0,14.0,67,0.00,,,0.00,Wunderground v.1.13,2013-11-23 09:10:00,
2013-11-23 02:15:00,17.3,8.2,30.75,NW,326,0.0,14.0,67,0.00,,,0.00,Wunderground v.1.13,2013-11-23 09:15:00,
2013-11-23 02:20:00,17.2,8.1,30.75,NNW,327,0.0,14.0,67,0.00,,,0.00,Wunderground v.1.13,2013-11-23 09:20:00,
2013-11-23 02:25:00,17.0,7.9,30.75,NNW,327,0.0,14.0,67,0.00,,,0.00,Wunderground v.1.13,2013-11-23 09:25:00,
2013-11-23 02:30:00,16.7,7.6,30.75,NNW,327,0.0,14.0,67,0.00,,,0.00,Wunderground v.1.13,2013-11-23 09:30:00,
2013-11-23 02:35:00,16.4,7.7,30.75,NW,326,0.0,14.0,68,0.00,,,0.00,Wunderground v.1.13,2013-11-23 09:35:00,
2013-11-23 02:40:00,16.1,7.4,30.75,NW,326,0.0,14.0,68,0.00,,,0.00,Wunderground v.1.13,2013-11-23 09:40:00,
2013-11-23 02:45:00,15.9,7.5,30.76,NW,326,0.0,14.0,69,0.00,,,0.00,Wunderground v.1.13,2013-11-23 09:45:00,
2013-11-23 02:50:00,15.9,7.2,30.76,NW,313,0.0,14.0,68,0.00,,,0.00,Wunderground v.1.13,2013-11-23 09:50:00,
2013-11-23 02:55:00,15.9,7.2,30.76,NW,319,0.0,14.0,68,0.00,,,0.00,Wunderground v.1.13,2013-11-23 09:55:00,
2013-11-23 03:00:00,15.7,7.0,30.76,NW,319,0.0,14.0,68,0.00,,,0.00,Wunderground v.1.13,2013-11-23 10:00:00,
2013-11-23 03:05:00,15.6,6.9,30.76,NW,319,0.0,14.0,68,0.00,,,0.00,Wunderground v.1.13,2013-11-23 10:05:00,
2013-11-23 03:10:00,15.4,7.0,30.76,NW,319,0.0,14.0,69,0.00,,,0.00,Wunderground v.1.13,2013-11-23 10:10:00,
2013-11-23 03:15:00,15.4,6.7,30.76,West,270,0.0,14.0,68,0.00,,,0.00,Wunderground v.1.13,2013-11-23 10:15:00,
2013-11-23 03:20:00,15.6,6.9,30.76,WNW,300,0.0,14.0,68,0.00,,,0.00,Wunderground v.1.13,2013-11-23 10:20:00,
2013-11-23 03:25:00,15.7,7.0,30.76,NW,304,0.0,14.0,68,0.00,,,0.00,Wunderground v.1.13,2013-11-23 10:25:00,
2013-11-23 03:30:00,16.1,7.1,30.77,NNW,330,0.0,14.0,67,0.00,,,0.00,Wunderground v.1.13,2013-11-23 10:30:00,
2013-11-23 03:35:00,16.2,7.2,30.77,NNW,330,1.0,1.0,67,0.00,,,0.00,Wunderground v.1.13,2013-11-23 10:35:00,
2013-11-23 03:40:00,16.1,6.7,30.77,NNW,329,0.0,14.0,66,0.00,,,0.00,Wunderground v.1.13,2013-11-23 10:40:00,
2013-11-23 03:45:00,15.9,6.9,30.77,NNW,329,0.0,14.0,67,0.00,,,0.00,Wunderground v.1.13,2013-11-23 10:45:00,
2013-11-23 03:50:00,15.6,6.6,30.77,NNW,329,0.0,14.0,67,0.00,,,0.00,Wunderground v.1.13,2013-11-23 10:50:00,
2013-11-23 03:55:00,15.4,6.4,30.77,NNW,329,0.0,14.0,67,0.00,,,0.00,Wunderground v.1.13,2013-11-23 10:55:00,
2013-11-23 04:00:00,15.1,6.4,30.77,NNW,329,0.0,14.0,68,0.00,,,0.00,Wunderground v.1.13,2013-11-23 11:00:00,
2013-11-23 04:05:00,14.9,6.2,30.77,NNW,329,0.0,14.0,68,0.00,,,0.00,Wunderground v.1.13,2013-11-23 11:05:00,
2013-11-23 04:10:00,14.9,6.2,30.77,NNW,329,0.0,14.0,68,0.00,,,0.00,Wunderground v.1.13,2013-11-23 11:10:00,
2013-11-23 04:15:00,14.8,6.1,30.77,NNW,329,0.0,14.0,68,0.00,,,0.00,Wunderground v.1.13,2013-11-23 11:15:00,
2013-11-23 04:20:00,14.6,6.3,30.77,NNW,329,0.0,14.0,69,0.00,,,0.00,Wunderground v.1.13,2013-11-23 11:20:00,
2013-11-23 04:25:00,14.4,6.1,30.77,NNW,329,0.0,14.0,69,0.00,,,0.00,Wunderground v.1.13,2013-11-23 11:25:00,
2013-11-23 04:30:00,14.4,6.1,30.77,NNW,329,0.0,14.0,69,0.00,,,0.00,Wunderground v.1.13,2013-11-23 11:30:00,
2013-11-23 04:35:00,14.3,6.3,30.77,NNW,329,0.0,14.0,70,0.00,,,0.00,Wunderground v.1.13,2013-11-23 11:35:00,
2013-11-23 04:40:00,14.1,6.1,30.77,NNW,329,0.0,14.0,70,0.00,,,0.00,Wunderground v.1.13,2013-11-23 11:40:00,
2013-11-23 04:45:00,14.0,6.0,30.77,NNW,329,0.0,14.0,70,0.00,,,0.00,Wunderground v.1.13,2013-11-23 11:45:00,
2013-11-23 04:50:00,14.1,6.1,30.77,NNW,329,0.0,14.0,70,0.00,,,0.00,Wunderground v.1.13,2013-11-23 11:50:00,
2013-11-23 04:55:00,14.0,6.0,30.77,NNW,329,0.0,14.0,70,0.00,,,0.00,Wunderground v.1.13,2013-11-23 11:55:00,
2013-11-23 05:00:00,14.1,6.4,30.77,NNW,328,0.0,14.0,71,0.00,,,0.00,Wunderground v.1.13,2013-11-23 12:00:00,
2013-11-23 05:05:00,14.1,6.1,30.77,NNW,328,0.0,14.0,70,0.00,,,0.00,Wunderground v.1.13,2013-11-23 12:05:00,
2013-11-23 05:10:00,14.3,6.3,30.77,NNW,328,0.0,14.0,70,0.00,,,0.00,Wunderground v.1.13,2013-11-23 12:10:00,
2013-11-23 05:15:00,14.3,6.3,30.77,NNW,328,0.0,14.0,70,0.00,,,0.00,Wunderground v.1.13,2013-11-23 12:15:00,
2013-11-23 05:20:00,14.3,6.3,30.77,NNW,328,0.0,14.0,70,0.00,,,0.00,Wunderground v.1.13,2013-11-23 12:20:00,
2013-11-23 05:25:00,14.4,6.4,30.77,NNW,328,0.0,14.0,70,0.00,,,0.00,Wunderground v.1.13,2013-11-23 12:25:00,
2013-11-23 05:30:00,14.3,6.3,30.78,NNW,328,0.0,14.0,70,0.00,,,0.00,Wunderground v.1.13,2013-11-23 12:30:00,
2013-11-23 05:35:00,14.3,6.3,30.78,NNW,328,0.0,14.0,70,0.00,,,0.00,Wunderground v.1.13,2013-11-23 12:35:00,
2013-11-23 05:40:00,14.1,6.1,30.78,NNW,328,0.0,14.0,70,0.00,,,0.00,Wunderground v.1.13,2013-11-23 12:40:00,
2013-11-23 05:45:00,14.0,6.0,30.79,NNW,329,0.0,14.0,70,0.00,,,0.00,Wunderground v.1.13,2013-11-23 12:45:00,
2013-11-23 05:50:00,14.0,6.0,30.79,NNW,328,0.0,14.0,70,0.00,,,0.00,Wunderground v.1.13,2013-11-23 12:50:00,
2013-11-23 05:55:00,13.8,5.8,30.79,NNW,328,0.0,14.0,70,0.00,,,0.00,Wunderground v.1.13,2013-11-23 12:55:00,
2013-11-23 06:00:00,13.5,5.5,30.79,NNW,328,0.0,14.0,70,0.00,,,0.00,Wunderground v.1.13,2013-11-23 13:00:00,
2013-11-23 06:05:00,13.1,5.1,30.79,NNW,328,0.0,14.0,70,0.00,,,0.00,Wunderground v.1.13,2013-11-23 13:05:00,
2013-11-23 06:10:00,12.9,5.3,30.79,NNW,328,0.0,14.0,71,0.00,,,0.00,Wunderground v.1.13,2013-11-23 13:10:00,
2013-11-23 06:15:00,12.4,4.8,30.79,NNW,328,0.0,14.0,71,0.00,,,0.00,Wunderground v.1.13,2013-11-23 13:15:00,
2013-11-23 06:20:00,12.1,4.8,30.79,NNW,328,0.0,14.0,72,0.00,,,0.00,Wunderground v.1.13,2013-11-23 13:20:00,
2013-11-23 06:30:00,11.4,4.4,30.79,NNW,328,0.0,14.0,73,0.00,,,0.00,Wunderground v.1.13,2013-11-23 13:30:00,
2013-11-23 06:35:00,11.1,4.1,30.79,NNW,328,0.0,14.0,73,0.00,,,0.00,Wunderground v.1.13,2013-11-23 13:35:00,
2013-11-23 06:45:00,10.4,3.5,30.79,NNW,328,0.0,14.0,73,0.00,,,0.00,Wunderground v.1.13,2013-11-23 13:45:00,
2013-11-23 06:50:00,10.0,3.4,30.79,NNW,328,0.0,14.0,74,0.00,,,0.00,Wunderground v.1.13,2013-11-23 13:50:00,
2013-11-23 06:55:00,9.9,3.3,30.79,NNW,328,0.0,14.0,74,0.00,,,0.00,Wunderground v.1.13,2013-11-23 13:55:00,
2013-11-23 07:00:00,9.7,3.1,30.80,NNW,328,0.0,14.0,74,0.00,,,0.00,Wunderground v.1.13,2013-11-23 14:00:00,
2013-11-23 07:05:00,9.9,3.6,30.80,NNW,328,0.0,14.0,75,0.00,,,0.00,Wunderground v.1.13,2013-11-23 14:05:00,
2013-11-23 07:10:00,10.0,3.7,30.80,NNW,328,0.0,14.0,75,0.00,,,0.00,Wunderground v.1.13,2013-11-23 14:10:00,
2013-11-23 07:15:00,10.2,4.1,30.81,NNW,328,0.0,14.0,76,0.00,,,0.00,Wunderground v.1.13,2013-11-23 14:15:00,
2013-11-23 07:20:00,10.5,4.4,30.81,NNW,328,0.0,14.0,76,0.00,,,0.00,Wunderground v.1.13,2013-11-23 14:20:00,
2013-11-23 07:25:00,10.7,4.6,30.81,NNW,328,0.0,14.0,76,0.00,,,0.00,Wunderground v.1.13,2013-11-23 14:25:00,
2013-11-23 07:30:00,10.9,4.8,30.81,NNW,328,0.0,14.0,76,0.00,,,0.00,Wunderground v.1.13,2013-11-23 14:30:00,
2013-11-23 07:35:00,11.2,5.1,30.81,NNW,328,0.0,14.0,76,0.00,,,0.00,Wunderground v.1.13,2013-11-23 14:35:00,
2013-11-23 07:45:00,12.3,6.5,30.80,NNW,328,0.0,14.0,77,0.00,,,0.00,Wunderground v.1.13,2013-11-23 14:45:00,
2013-11-23 07:55:00,13.5,7.3,30.80,SW,230,0.0,14.0,76,0.00,,,0.00,Wunderground v.1.13,2013-11-23 14:55:00,
2013-11-23 08:00:00,13.8,7.6,30.81,SW,230,0.0,14.0,76,0.00,,,0.00,Wunderground v.1.13,2013-11-23 15:00:00,
2013-11-23 08:05:00,14.3,7.8,30.81,SW,230,0.0,14.0,75,0.00,,,0.00,Wunderground v.1.13,2013-11-23 15:05:00,
2013-11-23 08:10:00,14.4,7.6,30.81,SW,230,0.0,14.0,74,0.00,,,0.00,Wunderground v.1.13,2013-11-23 15:10:00,
2013-11-23 08:20:00,15.2,8.1,30.82,SW,230,0.0,14.0,73,0.00,,,0.00,Wunderground v.1.13,2013-11-23 15:20:00,
2013-11-23 08:25:00,16.4,9.6,30.82,SW,230,0.0,14.0,74,0.00,,,0.00,Wunderground v.1.13,2013-11-23 15:25:00,
2013-11-23 08:30:00,17.5,10.0,30.82,South,186,0.0,14.0,72,0.00,,,0.00,Wunderground v.1.13,2013-11-23 15:30:00,
2013-11-23 08:35:00,18.1,10.0,30.82,South,186,0.0,14.0,70,0.00,,,0.00,Wunderground v.1.13,2013-11-23 15:35:00,
2013-11-23 08:40:00,18.1,9.6,30.82,South,170,1.0,1.0,69,0.00,,,0.00,Wunderground v.1.13,2013-11-23 15:40:00,
2013-11-23 08:45:00,18.8,10.3,30.81,South,173,1.0,1.0,69,0.00,,,0.00,Wunderground v.1.13,2013-11-23 15:45:00,
2013-11-23 08:50:00,19.1,10.3,30.81,South,178,0.0,14.0,68,0.00,,,0.00,Wunderground v.1.13,2013-11-23 15:50:00,
2013-11-23 08:55:00,18.9,10.1,30.81,South,179,1.0,14.0,68,0.00,,,0.00,Wunderground v.1.13,2013-11-23 15:55:00,
2013-11-23 09:00:00,19.2,10.7,30.82,SSE,155,2.0,2.0,69,0.00,,,0.00,Wunderground v.1.13,2013-11-23 16:00:00,
2013-11-23 09:05:00,19.4,10.6,30.82,SE,146,1.0,1.0,68,0.00,,,0.00,Wunderground v.1.13,2013-11-23 16:05:00,
2013-11-23 09:10:00,19.7,11.2,30.82,SSE,165,0.0,14.0,69,0.00,,,0.00,Wunderground v.1.13,2013-11-23 16:10:00,
2013-11-23 09:15:00,19.5,10.6,30.82,SSE,153,0.0,14.0,68,0.00,,,0.00,Wunderground v.1.13,2013-11-23 16:15:00,
2013-11-23 09:20:00,19.4,10.2,30.82,SSW,196,1.0,1.0,67,0.00,,,0.00,Wunderground v.1.13,2013-11-23 16:20:00,
2013-11-23 09:25:00,19.5,10.6,30.82,South,189,1.0,1.0,68,0.00,,,0.00,Wunderground v.1.13,2013-11-23 16:25:00,
2013-11-23 09:30:00,20.0,11.1,30.82,South,188,0.0,14.0,68,0.00,,,0.00,Wunderground v.1.13,2013-11-23 16:30:00,
2013-11-23 09:35:00,20.0,10.8,30.82,South,191,0.0,14.0,67,0.00,,,0.00,Wunderground v.1.13,2013-11-23 16:35:00,
2013-11-23 09:40:00,20.2,11.0,30.82,SSE,159,0.0,14.0,67,0.00,,,0.00,Wunderground v.1.13,2013-11-23 16:40:00,
2013-11-23 09:45:00,20.3,10.7,30.81,South,186,0.0,14.0,66,0.00,,,0.00,Wunderground v.1.13,2013-11-23 16:45:00,
2013-11-23 09:55:00,20.8,11.2,30.81,South,180,0.0,14.0,66,0.00,,,0.00,Wunderground v.1.13,2013-11-23 16:55:00,
2013-11-23 10:00:00,21.4,11.5,30.81,South,175,0.0,14.0,65,0.00,,,0.00,Wunderground v.1.13,2013-11-23 17:00:00,
2013-11-23 10:05:00,21.6,11.6,30.81,South,181,0.0,14.0,65,0.00,,,0.00,Wunderground v.1.13,2013-11-23 17:05:00,
2013-11-23 10:10:00,22.2,11.9,30.81,South,175,0.0,14.0,64,0.00,,,0.00,Wunderground v.1.13,2013-11-23 17:10:00,
2013-11-23 10:15:00,22.4,12.1,30.80,South,172,0.0,14.0,64,0.00,,,0.00,Wunderground v.1.13,2013-11-23 17:15:00,
2013-11-23 10:20:00,22.7,12.0,30.80,SSE,157,0.0,14.0,63,0.00,,,0.00,Wunderground v.1.13,2013-11-23 17:20:00,
2013-11-23 10:30:00,23.0,12.3,30.79,SSE,165,0.0,14.0,63,0.00,,,0.00,Wunderground v.1.13,2013-11-23 17:30:00,
2013-11-23 10:35:00,23.2,12.8,30.79,SSE,166,0.0,14.0,64,0.00,,,0.00,Wunderground v.1.13,2013-11-23 17:35:00,
2013-11-23 10:40:00,23.6,12.8,30.79,SSE,167,1.0,1.0,63,0.00,,,0.00,Wunderground v.1.13,2013-11-23 17:40:00,
2013-11-23 10:45:00,24.4,13.2,30.78,South,174,1.0,14.0,62,0.00,,,0.00,Wunderground v.1.13,2013-11-23 17:45:00,
2013-11-23 10:50:00,24.7,13.1,30.78,SSW,203,2.0,2.0,61,0.00,,,0.00,Wunderground v.1.13,2013-11-23 17:50:00,
2013-11-23 10:55:00,25.4,13.4,30.78,SSW,198,1.0,1.0,60,0.00,,,0.00,Wunderground v.1.13,2013-11-23 17:55:00,
2013-11-23 11:00:00,25.1,13.2,30.77,SSW,198,1.0,1.0,60,0.00,,,0.00,Wunderground v.1.13,2013-11-23 18:00:00,
2013-11-23 11:05:00,25.4,13.4,30.77,SSW,196,1.0,14.0,60,0.00,,,0.00,Wunderground v.1.13,2013-11-23 18:05:00,
2013-11-23 11:10:00,25.8,14.2,30.77,SSE,164,2.0,14.0,61,0.00,,,0.00,Wunderground v.1.13,2013-11-23 18:10:00,
2013-11-23 11:15:00,26.3,13.9,30.76,SSW,198,2.0,2.0,59,0.00,,,0.00,Wunderground v.1.13,2013-11-23 18:15:00,
2013-11-23 11:20:00,26.4,13.6,30.76,South,189,1.0,1.0,58,0.00,,,0.00,Wunderground v.1.13,2013-11-23 18:20:00,
2013-11-23 11:25:00,26.7,13.9,30.76,SSW,194,1.0,1.0,58,0.00,,,0.00,Wunderground v.1.13,2013-11-23 18:25:00,
2013-11-23 11:30:00,26.7,14.3,30.75,South,177,1.0,1.0,59,0.00,,,0.00,Wunderground v.1.13,2013-11-23 18:30:00,
2013-11-23 11:35:00,27.0,14.6,30.75,SW,225,1.0,14.0,59,0.00,,,0.00,Wunderground v.1.13,2013-11-23 18:35:00,
2013-11-23 11:40:00,26.7,13.5,30.75,WSW,240,2.0,2.0,57,0.00,,,0.00,Wunderground v.1.13,2013-11-23 18:40:00,
2013-11-23 11:45:00,26.7,13.5,30.75,SW,220,2.0,2.0,57,0.00,,,0.00,Wunderground v.1.13,2013-11-23 18:45:00,
2013-11-23 11:50:00,27.3,14.1,30.75,SSW,197,0.0,14.0,57,0.00,,,0.00,Wunderground v.1.13,2013-11-23 18:50:00,
2013-11-23 11:55:00,27.6,14.3,30.75,SSW,207,0.0,14.0,57,0.00,,,0.00,Wunderground v.1.13,2013-11-23 18:55:00,
2013-11-23 12:00:00,27.5,14.2,30.74,SSW,200,0.0,14.0,57,0.00,,,0.00,Wunderground v.1.13,2013-11-23 19:00:00,
2013-11-23 12:05:00,27.5,14.2,30.74,South,183,0.0,14.0,57,0.00,,,0.00,Wunderground v.1.13,2013-11-23 19:05:00,
2013-11-23 12:10:00,27.8,14.5,30.74,South,171,0.0,14.0,57,0.00,,,0.00,Wunderground v.1.13,2013-11-23 19:10:00,
2013-11-23 12:15:00,28.1,14.8,30.73,South,186,0.0,14.0,57,0.00,,,0.00,Wunderground v.1.13,2013-11-23 19:15:00,
2013-11-23 12:20:00,27.9,13.8,30.73,SSW,206,1.0,1.0,55,0.00,,,0.00,Wunderground v.1.13,2013-11-23 19:20:00,
2013-11-23 12:25:00,28.4,14.3,30.73,SSE,162,0.0,14.0,55,0.00,,,0.00,Wunderground v.1.13,2013-11-23 19:25:00,
2013-11-23 12:30:00,28.7,14.6,30.73,South,185,1.0,1.0,55,0.00,,,0.00,Wunderground v.1.13,2013-11-23 19:30:00,
2013-11-23 12:35:00,28.5,14.4,30.73,South,183,1.0,14.0,55,0.00,,,0.00,Wunderground v.1.13,2013-11-23 19:35:00,
2013-11-23 12:40:00,29.0,14.8,30.73,SW,221,1.0,1.0,55,0.00,,,0.00,Wunderground v.1.13,2013-11-23 19:40:00,
2013-11-23 12:45:00,29.0,14.8,30.72,South,176,1.0,1.0,55,0.00,,,0.00,Wunderground v.1.13,2013-11-23 19:45:00,
2013-11-23 12:50:00,29.0,14.8,30.72,South,188,0.0,14.0,55,0.00,,,0.00,Wunderground v.1.13,2013-11-23 19:50:00,
2013-11-23 12:55:00,29.1,14.5,30.72,South,186,0.0,14.0,54,0.00,,,0.00,Wunderground v.1.13,2013-11-23 19:55:00,
2013-11-23 13:00:00,29.4,15.6,30.72,SSW,194,0.0,14.0,56,0.00,,,0.00,Wunderground v.1.13,2013-11-23 20:00:00,
2013-11-23 13:05:00,29.4,14.8,30.72,SSE,161,0.0,14.0,54,0.00,,,0.00,Wunderground v.1.13,2013-11-23 20:05:00,
2013-11-23 13:10:00,29.5,15.3,30.72,SSW,194,0.0,14.0,55,0.00,,,0.00,Wunderground v.1.13,2013-11-23 20:10:00,
2013-11-23 13:15:00,29.8,15.2,30.71,SSW,203,0.0,14.0,54,0.00,,,0.00,Wunderground v.1.13,2013-11-23 20:15:00,
2013-11-23 13:20:00,29.4,14.8,30.71,South,177,0.0,14.0,54,0.00,,,0.00,Wunderground v.1.13,2013-11-23 20:20:00,
2013-11-23 13:25:00,29.5,14.9,30.71,SSW,192,1.0,1.0,54,0.00,,,0.00,Wunderground v.1.13,2013-11-23 20:25:00,
2013-11-23 13:30:00,29.8,15.2,30.70,South,171,1.0,1.0,54,0.00,,,0.00,Wunderground v.1.13,2013-11-23 20:30:00,
2013-11-23 13:35:00,30.0,14.5,30.70,SSE,163,1.0,14.0,52,0.00,,,0.00,Wunderground v.1.13,2013-11-23 20:35:00,
2013-11-23 13:40:00,30.0,15.3,30.70,South,172,0.0,14.0,54,0.00,,,0.00,Wunderground v.1.13,2013-11-23 20:40:00,
2013-11-23 13:45:00,30.0,15.3,30.70,South,185,0.0,14.0,54,0.00,,,0.00,Wunderground v.1.13,2013-11-23 20:45:00,
2013-11-23 13:50:00,30.0,15.3,30.70,SSW,204,1.0,1.0,54,0.00,,,0.00,Wunderground v.1.13,2013-11-23 20:50:00,
2013-11-23 13:55:00,29.5,14.9,30.70,South,170,1.0,14.0,54,0.00,,,0.00,Wunderground v.1.13,2013-11-23 20:55:00,
2013-11-23 14:00:00,29.7,15.1,30.70,South,185,1.0,14.0,54,0.00,,,0.00,Wunderground v.1.13,2013-11-23 21:00:00,
2013-11-23 14:05:00,29.8,15.2,30.70,South,190,1.0,1.0,54,0.00,,,0.00,Wunderground v.1.13,2013-11-23 21:05:00,
2013-11-23 14:10:00,30.1,15.4,30.70,SSE,161,0.0,14.0,54,0.00,,,0.00,Wunderground v.1.13,2013-11-23 21:10:00,
2013-11-23 14:15:00,30.1,15.4,30.69,SSW,213,1.0,1.0,54,0.00,,,0.00,Wunderground v.1.13,2013-11-23 21:15:00,
2013-11-23 14:25:00,30.3,15.6,30.69,SW,219,0.0,14.0,54,0.00,,,0.00,Wunderground v.1.13,2013-11-23 21:25:00,
2013-11-23 14:30:00,30.0,15.3,30.69,South,172,0.0,14.0,54,0.00,,,0.00,Wunderground v.1.13,2013-11-23 21:30:00,
2013-11-23 14:35:00,30.1,15.4,30.69,SSW,195,0.0,14.0,54,0.00,,,0.00,Wunderground v.1.13,2013-11-23 21:35:00,
2013-11-23 14:40:00,30.1,15.4,30.69,SSW,198,0.0,14.0,54,0.00,,,0.00,Wunderground v.1.13,2013-11-23 21:40:00,
2013-11-23 14:50:00,29.8,15.2,30.68,SSW,197,1.0,1.0,54,0.00,,,0.00,Wunderground v.1.13,2013-11-23 21:50:00,
2013-11-23 14:55:00,29.8,15.2,30.68,South,182,1.0,1.0,54,0.00,,,0.00,Wunderground v.1.13,2013-11-23 21:55:00,
2013-11-23 15:00:00,29.8,15.6,30.68,South,179,0.0,14.0,55,0.00,,,0.00,Wunderground v.1.13,2013-11-23 22:00:00,
2013-11-23 15:10:00,30.0,15.8,30.68,South,183,0.0,14.0,55,0.00,,,0.00,Wunderground v.1.13,2013-11-23 22:10:00,
2013-11-23 15:15:00,29.7,15.5,30.68,SSE,164,1.0,14.0,55,0.00,,,0.00,Wunderground v.1.13,2013-11-23 22:15:00,
2013-11-23 15:20:00,29.4,15.6,30.68,South,178,1.0,14.0,56,0.00,,,0.00,Wunderground v.1.13,2013-11-23 22:20:00,
2013-11-23 15:25:00,29.3,15.5,30.68,SSW,202,1.0,1.0,56,0.00,,,0.00,Wunderground v.1.13,2013-11-23 22:25:00,
2013-11-23 15:30:00,29.3,15.5,30.68,South,183,1.0,1.0,56,0.00,,,0.00,Wunderground v.1.13,2013-11-23 22:30:00,
2013-11-23 15:40:00,29.3,15.9,30.68,South,181,0.0,14.0,57,0.00,,,0.00,Wunderground v.1.13,2013-11-23 22:40:00,
2013-11-23 15:45:00,29.1,15.7,30.68,SSW,192,0.0,14.0,57,0.00,,,0.00,Wunderground v.1.13,2013-11-23 22:45:00,
2013-11-23 15:50:00,28.7,16.2,30.68,SSE,163,0.0,14.0,59,0.00,,,0.00,Wunderground v.1.13,2013-11-23 22:50:00,
2013-11-23 15:55:00,28.4,15.9,30.68,SSE,163,0.0,14.0,59,0.00,,,0.00,Wunderground v.1.13,2013-11-23 22:55:00,
2013-11-23 16:00:00,28.1,16.0,30.67,SSE,163,0.0,14.0,60,0.00,,,0.00,Wunderground v.1.13,2013-11-23 23:00:00,
2013-11-23 16:05:00,27.8,16.1,30.67,SSE,163,0.0,14.0,61,0.00,,,0.00,Wunderground v.1.13,2013-11-23 23:05:00,
2013-11-23 16:10:00,27.5,16.2,30.67,SSE,163,0.0,14.0,62,0.00,,,0.00,Wunderground v.1.13,2013-11-23 23:10:00,
2013-11-23 16:15:00,27.2,16.3,30.66,SSE,163,0.0,14.0,63,0.00,,,0.00,Wunderground v.1.13,2013-11-23 23:15:00,
2013-11-23 16:20:00,26.9,16.3,30.66,SSE,163,0.0,14.0,64,0.00,,,0.00,Wunderground v.1.13,2013-11-23 23:20:00,
2013-11-23 16:25:00,26.6,16.1,30.66,SSE,163,0.0,14.0,64,0.00,,,0.00,Wunderground v.1.13,2013-11-23 23:25:00,
2013-11-23 16:30:00,26.3,16.1,30.66,SSE,163,0.0,14.0,65,0.00,,,0.00,Wunderground v.1.13,2013-11-23 23:30:00,
2013-11-23 16:35:00,25.8,15.6,30.66,SSE,163,0.0,14.0,65,0.00,,,0.00,Wunderground v.1.13,2013-11-23 23:35:00,
2013-11-23 16:40:00,25.4,15.6,30.66,SSE,163,0.0,14.0,66,0.00,,,0.00,Wunderground v.1.13,2013-11-23 23:40:00,
2013-11-23 16:45:00,25.3,15.9,30.66,SSE,163,0.0,14.0,67,0.00,,,0.00,Wunderground v.1.13,2013-11-23 23:45:00,
2013-11-23 16:50:00,25.1,15.7,30.66,SSE,163,0.0,14.0,67,0.00,,,0.00,Wunderground v.1.13,2013-11-23 23:50:00,
2013-11-23 16:55:00,24.8,15.4,30.66,SSE,163,0.0,14.0,67,0.00,,,0.00,Wunderground v.1.13,2013-11-23 23:55:00,
2013-11-23 17:00:00,24.5,15.4,30.66,SSE,163,0.0,14.0,68,0.00,,,0.00,Wunderground v.1.13,2013-11-24 00:00:00,
2013-11-23 17:05:00,24.2,15.2,30.66,SSE,163,0.0,14.0,68,0.00,,,0.00,Wunderground v.1.13,2013-11-24 00:05:00,
2013-11-23 17:10:00,23.9,15.2,30.66,SSE,163,0.0,14.0,69,0.00,,,0.00,Wunderground v.1.13,2013-11-24 00:10:00,
2013-11-23 17:15:00,23.6,14.9,30.66,SSE,163,0.0,14.0,69,0.00,,,0.00,Wunderground v.1.13,2013-11-24 00:15:00,
2013-11-23 17:20:00,23.3,15.0,30.66,SSE,163,0.0,14.0,70,0.00,,,0.00,Wunderground v.1.13,2013-11-24 00:20:00,
2013-11-23 17:25:00,23.5,15.1,30.66,SSE,163,0.0,14.0,70,0.00,,,0.00,Wunderground v.1.13,2013-11-24 00:25:00,
2013-11-23 17:30:00,23.5,15.1,30.66,SSE,163,0.0,14.0,70,0.00,,,0.00,Wunderground v.1.13,2013-11-24 00:30:00,
2013-11-23 17:35:00,23.3,15.0,30.66,SSE,163,0.0,14.0,70,0.00,,,0.00,Wunderground v.1.13,2013-11-24 00:35:00,
2013-11-23 17:40:00,23.0,14.7,30.66,SSE,163,0.0,14.0,70,0.00,,,0.00,Wunderground v.1.13,2013-11-24 00:40:00,
2013-11-23 17:45:00,22.7,14.4,30.66,SSE,163,0.0,14.0,70,0.00,,,0.00,Wunderground v.1.13,2013-11-24 00:45:00,
2013-11-23 17:50:00,22.2,14.2,30.66,SSE,163,0.0,14.0,71,0.00,,,0.00,Wunderground v.1.13,2013-11-24 00:50:00,
2013-11-23 17:55:00,21.9,13.9,30.66,SSE,163,0.0,14.0,71,0.00,,,0.00,Wunderground v.1.13,2013-11-24 00:55:00,
2013-11-23 18:00:00,21.8,14.2,30.66,SSE,163,0.0,14.0,72,0.00,,,0.00,Wunderground v.1.13,2013-11-24 01:00:00,
2013-11-23 18:05:00,21.3,13.7,30.66,SSE,163,0.0,14.0,72,0.00,,,0.00,Wunderground v.1.13,2013-11-24 01:05:00,
2013-11-23 18:10:00,21.0,13.4,30.66,SSE,163,0.0,14.0,72,0.00,,,0.00,Wunderground v.1.13,2013-11-24 01:10:00,
2013-11-23 18:15:00,20.5,13.2,30.66,SSE,163,0.0,14.0,73,0.00,,,0.00,Wunderground v.1.13,2013-11-24 01:15:00,
2013-11-23 18:20:00,20.2,12.9,30.66,SSE,163,0.0,14.0,73,0.00,,,0.00,Wunderground v.1.13,2013-11-24 01:20:00,
2013-11-23 18:25:00,19.9,12.9,30.66,SSE,163,0.0,14.0,74,0.00,,,0.00,Wunderground v.1.13,2013-11-24 01:25:00,
2013-11-23 18:30:00,19.5,12.6,30.65,SSE,163,0.0,14.0,74,0.00,,,0.00,Wunderground v.1.13,2013-11-24 01:30:00,
2013-11-23 18:35:00,19.2,12.6,30.65,SSE,163,0.0,14.0,75,0.00,,,0.00,Wunderground v.1.13,2013-11-24 01:35:00,
2013-11-23 18:40:00,18.9,12.3,30.65,SSE,163,0.0,14.0,75,0.00,,,0.00,Wunderground v.1.13,2013-11-24 01:40:00,
2013-11-23 18:45:00,18.6,12.0,30.65,SSE,163,0.0,14.0,75,0.00,,,0.00,Wunderground v.1.13,2013-11-24 01:45:00,
2013-11-23 18:50:00,18.3,12.0,30.65,SSE,163,0.0,14.0,76,0.00,,,0.00,Wunderground v.1.13,2013-11-24 01:50:00,
2013-11-23 18:55:00,18.0,11.7,30.65,SSE,163,0.0,14.0,76,0.00,,,0.00,Wunderground v.1.13,2013-11-24 01:55:00,
2013-11-23 19:00:00,17.7,11.4,30.65,SSE,163,0.0,14.0,76,0.00,,,0.00,Wunderground v.1.13,2013-11-24 02:00:00,
2013-11-23 19:05:00,17.5,11.5,30.65,SSE,163,0.0,14.0,77,0.00,,,0.00,Wunderground v.1.13,2013-11-24 02:05:00,
2013-11-23 19:10:00,17.3,11.3,30.65,SSE,163,0.0,14.0,77,0.00,,,0.00,Wunderground v.1.13,2013-11-24 02:10:00,
2013-11-23 19:15:00,17.2,11.5,30.65,SSE,163,0.0,14.0,78,0.00,,,0.00,Wunderground v.1.13,2013-11-24 02:15:00,
2013-11-23 19:20:00,17.0,11.3,30.65,SSE,163,0.0,14.0,78,0.00,,,0.00,Wunderground v.1.13,2013-11-24 02:20:00,
2013-11-23 19:25:00,16.7,11.0,30.65,SSE,163,0.0,14.0,78,0.00,,,0.00,Wunderground v.1.13,2013-11-24 02:25:00,
2013-11-23 19:30:00,16.4,11.0,30.64,SSE,163,0.0,14.0,79,0.00,,,0.00,Wunderground v.1.13,2013-11-24 02:30:00,
2013-11-23 19:35:00,16.2,10.8,30.64,SSE,163,0.0,14.0,79,0.00,,,0.00,Wunderground v.1.13,2013-11-24 02:35:00,
2013-11-23 19:40:00,16.5,11.4,30.64,SSE,163,0.0,14.0,80,0.00,,,0.00,Wunderground v.1.13,2013-11-24 02:40:00,
2013-11-23 19:45:00,17.0,11.9,30.63,SSE,163,0.0,14.0,80,0.00,,,0.00,Wunderground v.1.13,2013-11-24 02:45:00,
2013-11-23 19:50:00,17.5,12.1,30.63,SSE,163,0.0,14.0,79,0.00,,,0.00,Wunderground v.1.13,2013-11-24 02:50:00,
2013-11-23 19:55:00,17.7,12.0,30.63,SSE,163,0.0,14.0,78,0.00,,,0.00,Wunderground v.1.13,2013-11-24 02:55:00,
2013-11-23 20:00:00,17.7,12.0,30.63,SSE,163,0.0,14.0,78,0.00,,,0.00,Wunderground v.1.13,2013-11-24 03:00:00,
2013-11-23 20:05:00,17.7,11.7,30.63,SSE,163,0.0,14.0,77,0.00,,,0.00,Wunderground v.1.13,2013-11-24 03:05:00,
2013-11-23 20:10:00,17.3,11.3,30.63,SSE,163,0.0,14.0,77,0.00,,,0.00,Wunderground v.1.13,2013-11-24 03:10:00,
2013-11-23 20:15:00,17.3,11.3,30.63,SSE,163,0.0,14.0,77,0.00,,,0.00,Wunderground v.1.13,2013-11-24 03:15:00,
2013-11-23 20:20:00,17.5,11.5,30.63,SSE,163,0.0,14.0,77,0.00,,,0.00,Wunderground v.1.13,2013-11-24 03:20:00,
2013-11-23 20:25:00,17.7,11.7,30.63,SSE,163,0.0,14.0,77,0.00,,,0.00,Wunderground v.1.13,2013-11-24 03:25:00,
2013-11-23 20:35:00,18.1,11.8,30.62,SSE,163,0.0,14.0,76,0.00,,,0.00,Wunderground v.1.13,2013-11-24 03:35:00,
2013-11-23 20:40:00,18.1,11.8,30.62,SSE,163,0.0,14.0,76,0.00,,,0.00,Wunderground v.1.13,2013-11-24 03:40:00,
2013-11-23 20:45:00,18.4,12.1,30.61,SSW,213,0.0,14.0,76,0.00,,,0.00,Wunderground v.1.13,2013-11-24 03:45:00,
2013-11-23 20:50:00,19.1,12.5,30.61,SSE,161,0.0,14.0,75,0.00,,,0.00,Wunderground v.1.13,2013-11-24 03:50:00,
2013-11-23 20:55:00,19.4,12.5,30.61,SSE,162,0.0,14.0,74,0.00,,,0.00,Wunderground v.1.13,2013-11-24 03:55:00,
2013-11-23 21:00:00,19.4,12.2,30.61,SSE,162,0.0,14.0,73,0.00,,,0.00,Wunderground v.1.13,2013-11-24 04:00:00,
2013-11-23 21:05:00,19.2,12.0,30.61,SSE,162,0.0,14.0,73,0.00,,,0.00,Wunderground v.1.13,2013-11-24 04:05:00,
2013-11-23 21:15:00,19.4,12.2,30.60,South,170,0.0,14.0,73,0.00,,,0.00,Wunderground v.1.13,2013-11-24 04:15:00,
2013-11-23 21:19:00,19.2,12.0,30.60,SSE,159,0.0,14.0,73,0.00,,,0.00,Wunderground v.1.13,2013-11-24 04:19:00,
2013-11-23 21:25:00,19.2,12.0,30.60,SSW,192,0.0,14.0,73,0.00,,,0.00,Wunderground v.1.13,2013-11-24 04:25:00,
2013-11-23 21:30:00,19.1,11.9,30.60,South,182,0.0,14.0,73,0.00,,,0.00,Wunderground v.1.13,2013-11-24 04:30:00,
2013-11-23 21:35:00,19.1,11.9,30.60,SSW,192,0.0,14.0,73,0.00,,,0.00,Wunderground v.1.13,2013-11-24 04:35:00,
2013-11-23 21:40:00,18.9,11.7,30.60,South,190,0.0,14.0,73,0.00,,,0.00,Wunderground v.1.13,2013-11-24 04:40:00,
2013-11-23 21:45:00,18.8,11.6,30.59,South,190,0.0,14.0,73,0.00,,,0.00,Wunderground v.1.13,2013-11-24 04:45:00,
2013-11-23 21:50:00,18.6,11.4,30.59,South,190,0.0,14.0,73,0.00,,,0.00,Wunderground v.1.13,2013-11-24 04:50:00,
2013-11-23 21:55:00,18.6,11.7,30.59,South,190,0.0,14.0,74,0.00,,,0.00,Wunderground v.1.13,2013-11-24 04:55:00,
2013-11-23 22:00:00,18.6,11.7,30.58,South,190,0.0,14.0,74,0.00,,,0.00,Wunderground v.1.13,2013-11-24 05:00:00,
2013-11-23 22:05:00,18.4,11.5,30.58,SSW,197,0.0,14.0,74,0.00,,,0.00,Wunderground v.1.13,2013-11-24 05:05:00,
2013-11-23 22:10:00,18.6,11.7,30.58,SSW,198,0.0,14.0,74,0.00,,,0.00,Wunderground v.1.13,2013-11-24 05:10:00,
2013-11-23 22:15:00,18.6,11.7,30.58,SSW,198,0.0,14.0,74,0.00,,,0.00,Wunderground v.1.13,2013-11-24 05:15:00,
2013-11-23 22:25:00,19.1,12.2,30.58,SSW,201,0.0,14.0,74,0.00,,,0.00,Wunderground v.1.13,2013-11-24 05:25:00,
2013-11-23 22:30:00,18.9,11.7,30.57,South,190,0.0,14.0,73,0.00,,,0.00,Wunderground v.1.13,2013-11-24 05:30:00,
2013-11-23 22:35:00,19.1,11.9,30.57,South,190,0.0,14.0,73,0.00,,,0.00,Wunderground v.1.13,2013-11-24 05:35:00,
2013-11-23 22:45:00,19.1,11.9,30.57,NNW,329,0.0,14.0,73,0.00,,,0.00,Wunderground v.1.13,2013-11-24 05:45:00,
2013-11-23 22:50:00,18.9,11.7,30.57,NNW,329,0.0,14.0,73,0.00,,,0.00,Wunderground v.1.13,2013-11-24 05:50:00,
2013-11-23 22:55:00,18.9,11.7,30.57,NNW,329,0.0,14.0,73,0.00,,,0.00,Wunderground v.1.13,2013-11-24 05:55:00,
2013-11-23 23:00:00,18.8,11.6,30.56,NNW,329,0.0,14.0,73,0.00,,,0.00,Wunderground v.1.13,2013-11-24 06:00:00,
2013-11-23 23:05:00,18.6,11.4,30.56,NNW,329,0.0,14.0,73,0.00,,,0.00,Wunderground v.1.13,2013-11-24 06:05:00,
2013-11-23 23:10:00,18.6,11.7,30.56,WNW,289,0.0,14.0,74,0.00,,,0.00,Wunderground v.1.13,2013-11-24 06:10:00,
2013-11-23 23:15:00,18.8,11.6,30.56,WSW,247,0.0,14.0,73,0.00,,,0.00,Wunderground v.1.13,2013-11-24 06:15:00,
2013-11-23 23:25:00,18.9,11.7,30.56,West,277,0.0,14.0,73,0.00,,,0.00,Wunderground v.1.13,2013-11-24 06:25:00,
2013-11-23 23:30:00,18.9,11.7,30.55,West,269,0.0,14.0,73,0.00,,,0.00,Wunderground v.1.13,2013-11-24 06:30:00,
2013-11-23 23:35:00,18.8,11.6,30.55,West,269,0.0,14.0,73,0.00,,,0.00,Wunderground v.1.13,2013-11-24 06:35:00,
2013-11-23 23:40:00,18.4,11.5,30.55,West,268,0.0,14.0,74,0.00,,,0.00,Wunderground v.1.13,2013-11-24 06:40:00,
2013-11-23 23:45:00,18.3,11.4,30.54,WSW,254,0.0,14.0,74,0.00,,,0.00,Wunderground v.1.13,2013-11-24 06:45:00,
2013-11-23 23:50:00,18.3,11.4,30.54,SW,229,1.0,1.0,74,0.00,,,0.00,Wunderground v.1.13,2013-11-24 06:50:00,
2013-11-23 23:55:00,18.0,11.1,30.54,WSW,244,1.0,1.0,74,0.00,,,0.00,Wunderground v.1.13,2013-11-24 06:55:00,